Location: Newark
(40.7060°N, 73.9980°W)
Time: 00:59:02
(UTC+00:00)

N. Korean satellite - Pass Details

Date: 21 November 2019
Orbit: 455 x 506 km, 97.2° (Epoch: 10 December)

Event Time Altitude Azimuth Distance (km) Brightness Sun altitude
Rises 22:08:40 0° 173° (S) 2,556 10.4 -6.9°
Reaches altitude 10° 22:10:43 10° 176° (S) 1,687 9.5 -7.3°
Maximum altitude 22:14:20 67° 259° (W) 545 7.1 -7.9°
Drops below altitude 10° 22:18:02 10° 343° (NNW) 1,722 9.3 -8.6°
Sets 22:20:09 0° 346° (NNW) 2,615 10.2 -9.0°
